Location: Unspecified
(0.0000°N, 0.0000°E)
Time: 20:25:47
(UTC+01:00)

Vanguard 3 - Visible Passes

Search period start: 19 January 2018 00:00
Search period end: 29 January 2018 00:00
Orbit: 508 x 3264 km, 33.4° (Epoch: 19 January)

Date Brightness Start Highest point End Pass type
(mag) Time Alt. Az. Time Alt. Az. Time Alt. Az.
19 Jan 11.3 03:09:51 14° NNE 03:09:51 14° NNE 03:13:10 10° NNE visible
19 Jan 11.1 05:14:25 13° NNW 05:24:29 19° N 05:36:10 10° NE visible
19 Jan 8.2 21:05:40 10° SW 21:11:23 50° SE 21:12:21 47° ESE visible
19 Jan 10.5 23:16:48 10° W 23:16:56 11° W 23:16:56 11° W visible
20 Jan 11.1 04:04:33 17° N 04:04:58 17° N 04:16:19 10° NE visible
20 Jan 11.0 06:12:15 10° NNW 06:27:37 27° NNE 06:40:08 10° ENE visible
20 Jan 9.0 19:54:08 10° S 19:57:58 20° SE 20:02:44 11° E visible
20 Jan 8.7 22:03:09 10° WSW 22:07:19 47° WSW 22:07:19 47° WSW visible
21 Jan 11.4 02:54:42 12° NNE 02:54:42 12° NNE 02:56:31 10° NNE visible
21 Jan 11.1 04:59:16 15° NNW 05:08:51 21° NNE 05:21:26 10° ENE visible
21 Jan 7.8 20:50:20 10° SW 20:55:40 61° SE 20:57:43 46° E visible
21 Jan 10.4 23:02:00 10° W 23:02:18 11° W 23:02:18 11° W visible
22 Jan 11.1 03:49:26 17° N 03:49:30 17° N 04:00:56 10° NE visible
22 Jan 10.9 05:55:16 10° NNW 06:11:41 31° NNE 06:25:18 10° E visible
22 Jan 8.6 19:38:30 10° SSW 19:42:20 24° SE 19:47:44 10° E visible
22 Jan 8.5 21:48:08 10° WSW 21:52:46 49° WNW 21:52:46 49° WNW visible
23 Jan 11.5 02:39:39 10° NNE 02:39:39 10° NNE 02:39:58 10° NNE visible
23 Jan 11.0 04:44:12 17° NNW 04:53:05 23° NNE 05:06:36 10° ENE visible
23 Jan 7.4 20:35:06 10° SW 20:40:04 77° SE 20:43:14 36° ENE visible
23 Jan 10.3 22:47:24 10° W 22:47:49 12° WNW 22:47:49 12° WNW visible
24 Jan 11.1 03:34:27 18° NNE 03:34:27 18° NNE 03:45:40 10° NE visible
24 Jan 10.8 05:39:01 11° NNW 05:55:33 35° NNE 06:10:14 10° E visible
24 Jan 8.5 21:33:16 10° W 21:38:20 42° NW 21:38:20 42° NW visible
25 Jan 10.9 04:29:17 20° N 04:37:10 26° NNE 04:51:36 10° ENE visible
25 Jan 10.4 06:37:28 10° NW 06:56:53 55° NNE 07:11:24 10° ESE visible
25 Jan 7.2 20:19:58 10° WSW 20:24:35 80° NW 20:28:51 25° NE visible
25 Jan 10.2 22:33:04 10° WNW 22:33:27 11° WNW 22:33:27 11° WNW visible
26 Jan 11.1 03:19:35 19° NNE 03:19:35 19° NNE 03:30:28 10° NE visible
26 Jan 10.7 05:24:10 16° NNW 05:39:15 40° NNE 05:54:58 10° E visible
26 Jan 8.8 21:18:34 10° W 21:23:26 31° NNW 21:24:00 30° NNW visible
27 Jan 10.8 04:14:31 24° N 04:21:06 28° NNE 04:36:25 10° ENE visible
27 Jan 10.3 06:20:30 10° NW 06:40:20 62° NE 06:55:51 10° ESE visible
27 Jan 7.5 20:04:57 10° WSW 20:09:12 57° NNW 20:14:32 15° NE visible
28 Jan 11.1 03:04:55 19° NNE 03:04:55 19° NNE 03:15:15 10° ENE visible
28 Jan 10.6 05:09:30 21° NNW 05:22:46 45° NNE 05:39:29 10° E visible
28 Jan 9.1 21:04:09 10° WNW 21:08:14 22° NNW 21:09:41 20° N visible
